Вернуться в каталог

SL-8 DEB

АктивенLEO
NORAD 21163·DEBRIS·🇷🇺 Russia

Запущен Feb 12, 1991 с Plesetsk Cosmodrome

Loading…

Ближайшие Пролёты (ближайшие 24 часа)

TLE

СвежийSource: Space-Track

Эпоха: Sep 14, 2026, 14:44 UTC

1 21163U 91009AA  26257.61456319  .00000028  00000-0  35558-3 0  9998
2 21163  73.9458  10.9983 0138336 259.1229 113.3999 12.30978378595827

Отслеживайте SL-8 DEB в реальном времени с AllMySat

Download on the App Store